www.pogodaiklimat.ru
ПОГОДА в Кечкемете
Время
(UTC), дата
04 24.07
05 24.07
06 24.07
07 24.07
08 24.07
09 24.07
10 24.07
11 24.07
12 24.07
13 24.07
14 24.07
15 24.07
16 24.07
17 24.07
18 24.07
19 24.07
20 24.07
21 24.07
22 24.07
23 24.07
00 25.07
01 25.07
02 25.07
03 25.07
04 25.07
05 25.07
06 25.07
07 25.07
08 25.07
09 25.07
10 25.07
11 25.07
12 25.07
13 25.07
14 25.07
15 25.07
16 25.07
17 25.07
18 25.07
19 25.07
20 25.07
21 25.07
22 25.07
23 25.07
00 26.07
01 26.07
02 26.07
03 26.07
04 26.07
05 26.07
06 26.07
07 26.07
08 26.07
09 26.07
10 26.07
11 26.07
12 26.07
13 26.07
14 26.07
15 26.07
16 26.07
17 26.07
18 26.07
19 26.07
20 26.07
21 26.07
22 26.07
23 26.07
00 27.07
01 27.07
02 27.07
03 27.07
04 27.07
05 27.07
06 27.07
07 27.07
08 27.07
09 27.07
10 27.07
11 27.07
12 27.07
13 27.07
14 27.07
15 27.07
16 27.07
17 27.07
18 27.07
19 27.07
20 27.07
21 27.07
22 27.07
23 27.07
00 28.07
01 28.07
02 28.07
03 28.07
04 28.07
05 28.07
06 28.07
07 28.07
08 28.07
09 28.07
10 28.07
11 28.07
12 28.07
13 28.07
14 28.07
15 28.07
16 28.07
17 28.07
18 28.07
19 28.07
20 28.07
21 28.07
22 28.07
23 28.07
00 29.07
01 29.07
02 29.07
03 29.07
04 29.07
05 29.07
06 29.07
07 29.07
08 29.07
09 29.07
10 29.07
11 29.07
12 29.07
13 29.07
14 29.07
15 29.07
16 29.07
17 29.07
18 29.07
19 29.07
20 29.07
21 29.07
22 29.07
23 29.07
00 30.07
01 30.07
02 30.07
03 30.07
04 30.07
05 30.07
06 30.07
07 30.07
08 30.07
09 30.07
10 30.07
11 30.07
12 30.07
13 30.07
14 30.07
15 30.07
16 30.07
17 30.07
18 30.07
19 30.07
20 30.07
21 30.07
22 30.07
23 30.07
00 31.07
01 31.07
02 31.07
03 31.07
04 31.07
Ветер
(напр.,м/с)
Видим. Явления Облачность Т
(С)
Тd
(С)
f
(%)
Тe
(С)
Тes
(С)
Комфортность P
(гПа)
Po
(гПа)
Тmin
(С)
Tmax
(С)
R
(мм)
R24
(мм)
S
(см)
штиль 0 н/о н/о +16.5 +13.2 81 +16 +16 1015.4 1001.7
С 1 н/о н/о +18.0 +14.3 79 +19 +19 1015.4 1001.7
С 1 20 км ясно +20.6 +15.4 72 +25 +30 комфорт 1015.2 1001.9 +15.7 0
СВ 1 н/о н/о +25.2 +14.4 51 +28 +28 жарко 1015.4 1002.1
СВ 1 н/о н/о +26.7 +14.5 47 +29 +29 жарко 1015.3 1002.0
нст 2 30 км 1/1 1500 м
[Cu hum]
+27.0 +12.6 41 +29 +42 жарко 1015.1 1002.1
СВ 2 н/о н/о +28.5 +14.0 41 +30 +30 жарко 1014.8 1001.6
ЮВ 2 н/о н/о +28.8 +13.1 38 +30 +30 жарко 1014.5 1001.3
С 1
{7}
30 км 3/3 2000 м
[Cu hum]
+29.2 +14.2 40 +31 +44 жарко 1014.1 1001.2
Ю 3 н/о н/о +30.2 +12.6 34 +31 +31 жарко 1013.7 1000.6
ЮВ 3 н/о н/о +30.2 +12.2 33 +31 +31 жарко 1013.6 1000.5
ЮВ 3 30 км 3/3 2000 м
[Cu hum]
+29.8 +13.5 37 +31 +35 жарко 1013.5 1000.6
ЮВ 3 н/о н/о +29.0 +12.4 36 +30 +30 жарко 1013.2 1000.1
Ю 2 н/о н/о +29.1 +12.1 35 +30 +30 жарко 1013.1 1000.0
Ю 1 30 км 1/0
[Ac lent]
+26.7 +12.7 42 +28 +28 жарко 1013.1 999.9 +30.5 0
Ю 2 н/о н/о +23.9 +13.5 52 +26 +26 жарко 1013.7 1000.3
Ю 1 н/о н/о +22.3 +13.6 58 +25 +25 комфорт 1014.0 1000.6
штиль 0 20 км ясно +21.3 +14.2 64 +24 +24 комфорт 1014.0 1000.7
ЮВ 1 н/о н/о +19.9 +14.5 71 +23 +23 комфорт 1014.3 1000.8
штиль 0 н/о н/о +18.3 +14.4 78 +19 +19 1014.3 1000.7
штиль 0 н/о н/о +17.7 +14.4 81 +18 +18 1014.1 1000.5
ЮВ 1 н/о н/о +17.6 +14.7 83 +19 +19 1013.7 1000.1
В 2 н/о н/о +17.7 +14.4 81 +18 +18 1013.5 999.9
В 1 10 км 4/0
[Ac cast Cs]
+16.6 +14.2 86 +17 +17 1013.9 1000.4
ЮВ 3 н/о н/о +19.3 +14.6 74 +21 +21 комфорт 1013.7 1000.1
ЮЗ 3
{8}
н/о н/о +20.8 +14.7 68 +24 +24 комфорт 1015.0 1001.5
В 2
{9}
8000 м слаб. ливневой дождь {гроза} 10/4 1350 м
[Cb calv Ac As]
+19.3 +16.1 82 +22 +22 комфорт 1014.8 1001.4 +16.4 0.4 0.4 0
ЮВ 5
{7}
н/о н/о +21.7 +16.2 71 +25 +25 комфорт 1014.0 1000.5
ЮВ 4 20 км {ливн. дождь} 6/1 1500 м
[Sc Ac As Ci sp]
+24.2 +16.7 63 +28 +33 душно 1013.7 1000.5
ЮВ 7 20 км 6/0
[Ac cast Ci sp]
+26.9 +14.9 48 +30 +33 душно 1013.3 1000.3
Ю 6
{10}
н/о н/о +29.0 +14.8 42 +31 +31 жарко 1012.9 999.8
ЮВ 5
{9}
н/о н/о +30.4 +15.3 40 +33 +33 душно 1012.5 999.4
Ю 5
{9}
30 км {гроза, ливн. дождь} 5/0
[Ci sp]
+30.9 +14.9 38 +33 +41 душно 1012.2 999.4 0.1
Ю 4
{8}
н/о н/о +31.9 +15.4 37 +34 +34 душно 1011.6 998.6
Ю 4
{9}
н/о н/о +32.1 +15.2 36 +34 +34 душно 1011.5 998.5
Ю 4 30 км 5/1 2000 м
[Cu hum Ci sp]
+32.3 +15.7 37 +35 +38 очень
душно
1011.5 998.7
Ю 4
{7}
н/о н/о +31.4 +15.8 39 +34 +34 душно 1011.5 998.5
Ю 3 н/о н/о +30.6 +17.3 45 +35 +35 очень
душно
1011.2 998.2
ЮВ 3 20 км 9/0
[Ac cast Cs]
+28.8 +18.0 52 +33 +33 очень
душно
1011.0 997.9 +32.5 0.1 0
ЮВ 3 н/о н/о +26.7 +18.0 59 +31 +31 душно 1011.6 998.4
ЮВ 2 н/о н/о +25.7 +18.4 64 +30 +30 душно 1012.4 999.1
ЮВ 3 30 км 9/0
[Ac As Cs]
+25.2 +17.1 61 +29 +29 душно 1012.1 999.0
ЮВ 3 н/о н/о +23.8 +16.6 64 +27 +27 жарко 1012.2 998.9
Ю 3 н/о н/о +23.3 +16.4 65 +28 +28 душно 1012.3 998.9
Ю 3 25 км 1/0
[Ci sp]
+22.9 +16.0 65 +27 +27 душно 1012.2 998.8
Ю 3 н/о н/о +22.5 +15.8 66 +27 +27 душно 1012.2 998.8
Ю 2 н/о н/о +22.8 +15.4 63 +27 +27 душно 1012.2 998.8
Ю 2 25 км 9/0
[Ac As Ci sp]
+22.3 +15.2 64 +26 +26 жарко 1012.7 999.5
Ю 3 н/о н/о +22.0 +15.4 66 +26 +26 душно 1012.6 999.2
Ю 2 н/о н/о +22.9 +15.7 64 +27 +27 душно 1012.8 999.4
Ю 2 25 км 9/0
[Ac cast Ci sp]
+24.7 +16.2 59 +28 +28 душно 1013.0 999.7 +21.6 0.1 0
Ю 4 н/о н/о +26.6 +16.2 53 +30 +30 душно 1013.3 1000.1
Ю 2 н/о н/о +27.5 +17.1 53 +31 +31 душно 1013.5 1000.3
Ю 2 30 км 8/0
[Ac As]
+29.2 +18.3 52 +34 +41 очень
душно
1013.8 1000.9
ЮВ 3 н/о н/о +31.0 +18.4 47 +36 +36 очень
душно
1013.8 1000.7
ЮВ 3 н/о н/о +32.6 +18.4 43 +37 +37 очень
душно
1013.4 1000.4
Ю 4
{7}
30 км 6/4 1500 м
[Cu hum Ci sp]
+32.7 +17.3 40 +36 +42 очень
душно
1013.0 1000.2
ЮЗ 4
{8}
н/о н/о +34.3 +15.2 32 +36 +36 душно 1012.5 999.6
ЮЗ 6
{10}
н/о н/о +33.9 +15.8 34 +36 +36 душно 1012.3 999.4
З 4 20 км 5/1 2000 м
[Cu hum Ci sp]
+33.3 +16.6 37 +36 +40 очень
душно
1012.2 999.5
З 5
{10}
н/о н/о +33.6 +15.1 33 +35 +35 душно 1012.1 999.2
ЮЗ 4
{10}
н/о н/о +32.8 +13.5 31 +34 +34 очень
жарко
1012.3 999.3
ЮЗ 3
{7}
20 км 6/0
[Ac lent Ci sp]
+31.5 +15.5 38 +34 +34 душно 1012.9 999.9 +34.4 0
ЮЗ 2 н/о н/о +29.7 +15.4 42 +32 +32 душно 1013.3 1000.2
Ю 2 н/о н/о +27.5 +15.8 49 +31 +31 душно 1013.9 1000.7
Ю 2 20 км 9/0
[Ac As Cs]
+26.8 +15.8 51 +30 +30 душно 1014.2 1001.2
Ю 2 н/о н/о +26.3 +17.9 60 +31 +31 душно 1014.4 1001.1
Ю 1 н/о н/о +25.4 +18.3 65 +30 +30 душно 1014.7 1001.4
Ю 2 10 км 4/0
[Ci sp]
+23.8 +18.5 72 +28 +28 душно 1014.6 1001.2
ЮЗ 2 н/о н/о +24.6 +18.3 68 +29 +29 душно 1014.6 1001.3
Ю 2 н/о н/о +23.9 +18.3 71 +28 +28 душно 1014.5 1001.1
Ю 2 20 км 4/0
[Ci sp]
+22.8 +18.3 76 +28 +28 душно 1014.4 1001.2
Ю 2 н/о н/о +21.7 +18.5 82 +26 +26 душно 1014.7 1001.2
ЮЗ 1 н/о н/о +23.4 +19.1 77 +30 +30 очень
душно
1015.0 1001.6
З 3 15 км 1/0
[Ci sp]
+26.7 +18.6 61 +32 +32 очень
душно
1015.4 1002.1 +21.6 0
З 4 н/о н/о +27.8 +17.6 54 +32 +32 душно 1015.5 1002.3
З 5
{8}
н/о н/о +28.9 +16.8 48 +33 +33 очень
душно
1015.9 1002.7
ЮЗ 5 25 км 8/0
[Ac trans Cs]
+29.9 +15.9 43 +33 +39 душно 1015.9 1003.0
З 4
{8}
н/о н/о +31.2 +16.8 42 +35 +35 очень
душно
1016.0 1002.9
З 6
{9}
н/о н/о +31.9 +16.6 40 +35 +35 очень
душно
1016.1 1003.1
З 5
{11}
15 км 8/1 1500 м
[Cu hum Cc]
+32.8 +17.0 39 +36 +42 очень
душно
1015.7 1002.9
ЮЗ 7
{11}
н/о н/о +33.6 +14.6 32 +35 +35 душно 1015.2 1002.2
ЮЗ 7
{13}
н/о н/о +33.7 +14.7 32 +35 +35 очень
жарко
1014.9 1001.9
ЮЗ 5 15 км 6/1 2000 м
[Cu hum Ac lent Cs]
+33.7 +15.2 33 +36 +38 очень
душно
1014.5 1001.7
ЮЗ 5
{9}
н/о н/о +33.2 +15.2 34 +35 +35 душно 1014.3 1001.3
ЮЗ 4
{9}
н/о н/о +32.5 +15.1 35 +35 +35 душно 1014.4 1001.4
ЮЗ 3
{7}
15 км 6/1 2000 м
[Sc Ac cast Cs]
+31.5 +15.0 37 +34 +34 душно 1014.3 1001.5 +34.2 0
ЮЗ 2 н/о н/о +29.6 +15.0 41 +32 +32 душно 1014.5 1001.4
ЮЗ 2 н/о н/о +27.0 +14.7 47 +30 +30 душно 1015.0 1001.8
ЮЗ 1 15 км 8/0
[Ac As Cs]
+25.6 +16.2 56 +29 +29 душно 1015.3 1002.2
З 1 н/о н/о +23.8 +15.3 59 +27 +27 жарко 1015.5 1002.1
штиль 0 н/о н/о +22.0 +16.7 72 +26 +26 душно 1015.3 1001.8
штиль 0 30 км 4/0
[Ci sp]
+21.4 +16.4 73 +25 +25 комфорт 1015.1 1001.6
штиль 0 н/о н/о +21.2 +16.0 72 +25 +25 комфорт 1015.0 1001.5
ЮВ 2 н/о н/о +20.2 +16.2 78 +24 +24 комфорт 1014.5 1001.0
штиль 0 10 км 1/0
[Ci sp]
+19.9 +15.9 78 +22 +22 комфорт 1014.6 1001.2
штиль 0 н/о н/о +20.5 +16.5 78 +23 +23 комфорт 1014.5 1001.0
штиль 0 н/о н/о +22.8 +17.9 74 +28 +28 душно 1014.2 1000.8
Ю 2 10 км 8/0
[Ac cast]
+24.3 +19.2 73 +29 +29 душно 1014.2 1000.9 +19.4 0
Ю 2 н/о н/о +27.1 +19.5 63 +33 +33 очень
душно
1014.0 1000.8
ЮЗ 2 н/о н/о +29.7 +20.0 56 +36 +36 очень
душно
1013.8 1000.7
Ю 2 30 км слаб. ливневой дождь 8/3 1200 м
[Cu med, cong Ac As]
+30.3 +19.3 52 +36 +41 очень
душно
1013.9 1001.0
ЮЗ 3 н/о н/о +32.7 +16.5 38 +36 +36 очень
душно
1013.2 1000.2
ЮЗ 3 н/о н/о +34.0 +14.0 30 +35 +35 очень
жарко
1012.3 999.4
ЮЗ 6
{10}
30 км {ливн. дождь} 1/1 2000 м
[Cu hum Ci sp]
+35.0 +12.0 25 +35 +40 очень
жарко
1011.9 999.2 0.0
З 5
{9}
н/о н/о +36.0 +12.9 25 +36 +36 очень
жарко
1011.1 998.3
З 7
{11}
н/о н/о +36.0 +11.6 23 +36 +36 очень
жарко
1010.7 997.9
З 5 30 км 1/1 2000 м
[Cu hum Ci sp]
+35.9 +12.8 25 +36 +39 очень
жарко
1010.3 997.7
З 6
{11}
н/о н/о +35.2 +13.4 27 +36 +36 очень
жарко
1009.6 996.8
ЮЗ 5
{10}
н/о н/о +34.2 +12.5 27 +34 +34 очень
жарко
1009.5 996.6
ЮЗ 3
{7}
30 км 8/0
[Ac cuf Ci sp]
+32.5 +12.2 28 +33 +33 жарко 1009.8 996.9 +38.0 0.0 0
З 2 н/о н/о +30.6 +12.5 33 +31 +31 жарко 1010.5 997.5
ЮЗ 2 н/о н/о +29.1 +13.3 38 +31 +31 жарко 1011.0 997.9
ЮЗ 3 30 км ясно +28.1 +14.0 42 +30 +30 жарко 1011.1 998.2
З 3 н/о н/о +26.8 +14.9 48 +29 +29 жарко 1011.6 998.4
З 5
{6}
н/о н/о +25.4 +15.1 53 +28 +28 жарко 1011.9 998.6
З 5
{7}
н/о н/о +23.4 +16.9 67 +29 +29 душно 1012.2 998.8
З 6
{9}
н/о н/о +22.4 +18.0 76 +27 +27 душно 1012.0 998.8
З 6
{8}
н/о н/о +21.3 +18.3 83 +26 +26 душно 1012.6 999.1
СЗ 5 30 км 8/0
[Ac cast Ci sp]
+20.9 +18.3 85 +25 +25 комфорт 1012.5 999.2
СЗ 7
{10}
н/о н/о +20.9 +16.9 78 +24 +24 комфорт 1013.2 999.7
З 5
{10}
н/о н/о +21.3 +16.9 76 +25 +25 комфорт 1013.4 999.9
З 6
{9}
30 км 1/0
[Ac cast Ci sp]
+22.3 +17.0 72 +27 +27 душно 1013.8 1000.4 +20.5 0.0 0
СЗ 7
{10}
н/о н/о +23.8 +17.5 68 +28 +28 душно 1014.2 1000.8
З 7
{9}
н/о н/о +25.4 +16.0 56 +29 +29 душно 1014.1 1000.8
З 7 30 км 1/0
[Ci sp]
+26.4 +15.7 52 +30 +34 душно 1014.2 1001.1
СЗ 6
{10}
н/о н/о +27.7 +15.0 46 +30 +30 жарко 1014.2 1001.0
З 4
{10}
н/о н/о +28.4 +14.6 43 +31 +31 душно 1014.0 1000.8
З 4
{8}
30 км ясно +29.3 +13.5 38 +31 +42 жарко 1013.7 1000.8
СЗ 5
{8}
н/о н/о +30.4 +14.1 37 +32 +32 жарко 1013.3 1000.2
З 5
{8}
н/о н/о +30.6 +13.4 35 +32 +32 жарко 1012.8 999.7
З 4 30 км ясно +30.4 +12.8 34 +31 +35 жарко 1012.6 999.7
З 4
{7}
н/о н/о +30.4 +12.3 33 +31 +31 жарко 1012.3 999.2
СЗ 4 н/о н/о +29.6 +11.6 33 +30 +30 жарко 1012.1 999.0
СЗ 2 30 км ясно +27.0 +13.7 44 +29 +29 жарко 1012.0 999.0 +30.9 0
СЗ 3 н/о н/о +23.8 +13.4 52 +26 +26 жарко 1012.7 999.3
СЗ 1 н/о н/о +23.4 +13.6 54 +27 +27 душно 1013.0 999.6
СЗ 1 30 км ясно +22.1 +13.7 59 +25 +25 комфорт 1013.1 999.9
штиль 0 н/о н/о +21.2 +13.6 62 +24 +24 комфорт 1013.4 999.9
штиль 0 н/о н/о +19.7 +13.4 67 +21 +21 комфорт 1013.2 999.7
штиль 0 н/о н/о +18.1 +13.8 76 +18 +18 1013.3 999.7
СЗ 1 н/о н/о +18.0 +13.7 76 +19 +19 1013.1 999.5
штиль 0 н/о н/о +17.3 +13.2 77 +17 +17 1013.1 999.4
штиль 0 30 км ясно +17.3 +13.4 78 +17 +17 1012.9 999.4
штиль 0 н/о н/о +17.3 +13.6 79 +17 +17 1013.0 999.3
штиль 0 н/о н/о +21.2 +16.2 73 +25 +25 комфорт 1013.0 999.5
СВ 3 30 км ясно +24.4 +15.6 58 +27 +27 жарко 1012.7 999.4 +16.5 0
СВ 3 н/о н/о +26.7 +15.4 50 +30 +30 душно 1012.7 999.5
ЮВ 2 н/о н/о +28.5 +15.8 46 +32 +32 душно 1012.6 999.5
нст 2 30 км ясно +29.8 +13.9 38 +32 +46 душно 1012.5 999.6
ЮВ 3 н/о н/о +31.1 +14.7 37 +33 +33 душно 1011.8 998.8
Ю 1 н/о н/о +32.1 +14.3 34 +34 +34 душно 1011.1 998.1
нст 2 30 км 1/1 2000 м
[Cu hum]
+33.0 +13.1 30 +34 +48 очень
жарко
1010.7 998.0
СЗ 1 н/о н/о +33.3 +13.9 31 +34 +34 очень
жарко
1009.8 996.9
З 1 н/о н/о +32.4 +13.6 32 +34 +34 очень
жарко
1009.3 996.4
З 2 30 км 4/4 2000 м
[Cu hum Ac lent Ci sp]
+33.3 +13.9 31 +34 +38 очень
жарко
1009.0 996.3
Ю 1 н/о н/о +33.1 +14.2 32 +34 +34 очень
жарко
1008.5 995.6
СВ 1 н/о н/о +30.7 +17.1 44 +34 +34 очень
душно
1008.6 995.6
В 2 30 км 6/3 2000 м
[Sc diur, vesp Ac cast Ci]
+30.4 +14.5 38 +32 +32 жарко 1008.8 995.8 +33.6 0
З 1 н/о н/о +27.4 +17.3 54 +31 +31 душно 1009.0 995.9
З 1 н/о н/о +25.8 +16.4 56 +29 +29 душно 1009.2 996.0
штиль 0 25 км 8/0
[Cs]
+25.1 +17.0 61 +29 +29 душно 1009.2 996.1
штиль 0 н/о н/о +23.5 +16.8 66 +27 +27 душно 1008.9 995.6
штиль 0 н/о н/о +22.6 +17.1 71 +27 +27 душно 1009.1 995.7
ЮВ 1 н/о н/о +21.7 +16.9 74 +26 +26 душно 1009.0 995.6
штиль 0 н/о н/о +21.2 +16.4 74 +25 +25 комфорт 1009.2 995.8
штиль 0 н/о н/о +19.9 +16.0 78 +22 +22 комфорт 1008.9 995.4
З 2 30 км 4/0
[Ci sp]
+20.8 +16.2 75 +25 +25 комфорт 1009.2 996.0
С 2 н/о н/о +22.2 +17.6 75 +27 +27 душно 1008.7 995.3
Местоположение метеостанции Кечкемет (Венгрия): широта 46.92 долгота 19.75 высота над уровнем моря 123 м.
В архиве по умолчанию представлена погода в Кечкемете за последнюю неделю. Архивные данные за месяц целиком и за предыдущие месяцы, начиная с января 2011 года, Вы можете получить, выбрав интересующий диапазон дат из раскрывающегося списка и нажав кнопку "Найти!".
*Определитесь, кто Вы:
Внимание! Время в таблицах - всемирное. Для получения местного времени необходимо прибавить поправку, которая равна 1 ч.
Смотрите также архив погоды в соседних городах и на ближайших метеорологических станциях:
Партнеры нашего сайта:      
Пояснения к столбцам:
  • Ветер - указаны скорость ветра в м/с - средняя за 10 мин, порывы в срок и между сроками (в фигурных скобках) и направление, откуда дует ветер: С - северный,
  • СВ - северо-восточный, В - восточный, ЮВ - юго-восточный, Ю - южный, ЮЗ - юго-западный, З - западный, СЗ - северо-западный.
  • Видимость - горизонтальная дальность видимости в метрах или километрах. При видимости от 1 до 10 км при отсутствии осадков обычно наблюдается дымка, при ухудшении видимости до 1 км и менее - туман. В сухую погоду видимость может ухудшаться дымом, пылью или мглою.
  • Явления - указаны атмосферные явления, наблюдавшиеся в срок или в последний час перед сроком; фигурными скобками обозначены явления, наблюдавшиеся между сроками (за 1-3 часа до срока); квадратными скобками обозначены град или гололедные отложения с указанием их диаметра в мм.
  • Облачность - указаны через наклонную черту общая и нижняя облачность в баллах и высота нижней границы облаков в метрах; квадратными скобками обозначены формы облаков: Ci - перистые, Cs - перисто-слоистые, Cc - перисто-кучевые, Ac - высококучевые, As - высокослоистые, Sc - слоисто-кучевые, Ns - слоисто-дождевые, Cu - кучевые, Cb - кучево-дождевые. Подробнее классификацию облаков см. в Атласе облаков (PDF).
  • T - Температура воздуха - температура, измеренная на высоте 2 м над землей.
  • Td - Температура точки росы - температура, при понижении до которой содержащийся в воздухе водяной пар достигнет насыщения.
  • f - Относительная влажность воздуха - влажноcть воздуха, измеренная на высоте 2 м над землей.
  • Te - Эффективная температура - температура, которую ощущает одетый по сезону человек в тени. Характеристика душности погоды. При расчете учитывается влияние влажности воздуха и скорости ветра на теплоощущения человека.
  • Tes - Эффективная температура на солнце - температура, которую ощущает человек, с поправкой на солнечный нагрев. Характеристика знойности погоды. Зависит от высоты солнца над горизонтом, облачности и скорости ветра. Ночью, в пасмурную погоду, а также при ветре 12 м/с и более поправка равна нулю.
  • P - Атмосферное давление - приведенное к уровню моря атмосферное давление.
  • Po - Атмосферное давление - измеренное на уровне метеостанции атмосферное давление.
  • Tmin - Минимальная температура - минимум температуры воздуха на высоте 2 м над землей.
  • Tmax - Максимальная температура - максимум температуры воздуха на высоте 2 м над землей.
  • R - Количество осадков - Количество выпавших осадков за период времени, мм. При наведении курсора мыши на число - период времени, за который выпало указанное количество осадков.
  • R24 - Количество осадков - Количество выпавших осадков за 24 часа, мм.
  • S - Снежный покров - Высота снежного покрова, см. При наведении курсора мыши на число - состояние снежного покрова и степень покрытия местности в баллах.